Regional Weather Roundup
Issued by NWS

Home | Current Version | Previous Version | Text Only | Print | Product List | Glossary On
Versions: 1 2 3 4 5 6 7 8 9 10 11 12 13 14 15 16 17 18 19 20 21 22 23 24 25 26 27 28 29 30 31 32 33 34 35 36 37 38 39 40 41 42 43 44 45 46 47 48 49 50
000
ASCA42 TJSJ 040810
RWRPR
PUERTO RICO/U.S. VIRGIN ISLANDS HOURLY WEATHER ROUNDUP
NATIONAL WEATHER SERVICE SAN JUAN PR
400 AM AST FRI SEP 04 2015

PRZ001-004-040900-
PUERTO RICO

CITY           SKY/WX    TMP DP  RH WIND       PRES   REMARKS
SAN JUAN LMM   PTCLDY    81  73  78 CALM      29.96R
PONCE          CLEAR     77  73  88 CALM      29.91S
AGUADILLA      CLEAR     73  72  94 CALM      29.97R
CEIBA          CLEAR     75  75 100 CALM      29.97S
$$

PRZ006-007-040900-
U.S. VIRGIN ISLANDS

CITY           SKY/WX    TMP DP  RH WIND       PRES   REMARKS
CHARLOTTE AMA  PTCLDY    82  75  78 CALM      29.94F
CHRISTIANSTED  CLEAR     77  73  88 N5        29.95S
$$

HOURLY WEATHER ROUNDUP FOR THE NEWS MEDIA

CITY           SKY/WX    TMP DP  RH WIND       PRES   REMARKS
ORLANDO        CLEAR     80  76  87 NW5       29.92F
NEW YORK       PTCLDY    76  69  79 NE5       29.93R
NEWARK         MOCLDY    78  67  68 N9        29.92R
CHICAGO        PTCLDY    70  67  90 N3        29.97R
HARTFORD       PTCLDY    69  66  90 N3        29.94R
BOSTON         CLOUDY    71  67  87 NE14      29.99R
DALLAS         PTCLDY    83  69  62 SE14      29.90R
PHILADELPHIA   MOCLDY    79  69  71 NW3       29.91R
LOS ANGELES    CLOUDY    68  57  68 CALM      29.86F
WASHINGTON DC  PTCLDY    74  67  78 CALM      29.93R


USA.gov is the U.S. government's official web portal to all federal, state and local government web resources and services.